Location: Casilda
(33.0440°S, 61.1680°W)
Time: 01:25:03
(UTC-03:00)

ISS - Pass Details

Date: 06 May 2021
Orbit: 417 x 422 km, 51.6° (Epoch: 12 May)

Event Time Altitude Azimuth Distance (km) Brightness Sun altitude
Rises 18:50:24 0° 209° (SSW) 2,395 0.3 -6.9°
Reaches altitude 10° 18:53:33 10° 178° (S) 1,523 -1.1 -7.5°
Maximum altitude 18:55:05 12° 151° (SSE) 1,377 -1.5 -7.8°
Drops below altitude 10° 18:56:37 10° 124° (SE) 1,517 -1.5 -8.1°
Enters shadow 18:56:43 10° 123° (ESE) 1,533 -1.5 -8.1°
